This is the latest recevied weather packets stored in our database for station/object KF0JHJ. If no packets are shown the sender has not sent any weather packets the latest 10 day(s).
| Time | Temp. | Humidity | Pressure | Rain* | Wind** | Luminosity | Snow |
|---|---|---|---|---|---|---|---|
| 1778088153 | 4.44° C | 59% | 1015 hPa | - | - | 84 W/m² | - |
| 1778087851 | 5° C | 59% | 1015.1 hPa | - | - | 81 W/m² | - |
| 1778087548 | 5° C | 59% | 1015.1 hPa | - | - | 83 W/m² | - |
| 1778087246 | 5° C | 59% | 1014.8 hPa | - | - | 88 W/m² | - |
| 1778086942 | 5° C | 59% | 1014.9 hPa | - | - | 93 W/m² | - |
| 1778086640 | 5° C | 58% | 1015.1 hPa | - | - | 102 W/m² | - |
| 1778086337 | 5° C | 57% | 1015.1 hPa | - | - | 108 W/m² | - |
| 1778086034 | 5° C | 59% | 1015.1 hPa | - | - | 122 W/m² | - |
| 1778085731 | 5° C | 61% | 1015.2 hPa | - | - | 135 W/m² | - |
| 1778085428 | 5° C | 60% | 1015.3 hPa | - | - | 159 W/m² | - |
| 1778085122 | 4.44° C | 59% | 1015.3 hPa | - | - | 146 W/m² | - |
| 1778084819 | 5° C | 61% | 1015.1 hPa | - | - | 136 W/m² | - |
| 1778084517 | 4.44° C | 61% | 1015.3 hPa | - | - | 126 W/m² | - |
| 1778084214 | 4.44° C | 61% | 1015.2 hPa | - | - | 110 W/m² | - |
| 1778083910 | 4.44° C | 61% | 1015.3 hPa | - | - | 83 W/m² | - |
| 1778083608 | 4.44° C | 59% | 1015.1 hPa | - | - | 98 W/m² | - |
| 1778083305 | 4.44° C | 60% | 1015.3 hPa | - | - | 100 W/m² | - |
| 1778083003 | 4.44° C | 61% | 1015.4 hPa | - | - | 103 W/m² | - |
| 1778082700 | 4.44° C | 62% | 1015.2 hPa | - | - | 103 W/m² | - |
| 1778081562 | 3.89° C | 59% | 1015 hPa | - | - | 98 W/m² | - |
| 1778081259 | 3.89° C | 61% | 1014.9 hPa | - | - | 98 W/m² | - |
| 1778080956 | 3.89° C | 60% | 1015 hPa | - | - | 91 W/m² | - |
| 1778080655 | 3.89° C | 60% | 1014.9 hPa | - | - | 91 W/m² | - |
| 1778080352 | 3.89° C | 60% | 1015.1 hPa | - | - | 84 W/m² | - |
| 1778080048 | 3.89° C | 60% | 1015 hPa | - | - | 83 W/m² | - |
* Rain since midnight (hover to see other rain measurements)
** Current wind speed in m/s (hover to see current wind gust speed)